Voltar ao catálogo

CZ-6A DEB

AtivoPO
NORAD 61086·DEBRIS·🇨🇳 China

Lançado Aug 6, 2024 de Taiyuan Satellite Launch Center

Loading…

Próximas Passagens (próximas 24 horas)

TLE

AtualizadoSource: Space-Track

Época: Sep 13, 2026, 10:58 UTC

1 61086U 24140NC  26256.45730931  .00003017  00000-0  24048-3 0  9997
2 61086  89.0255 258.5231 0179347 198.4364 161.0312 14.88159401110764

Acompanhe CZ-6A DEB em tempo real com AllMySat

Download on the App Store